,

(GMT )
Banff

Weather History for CWZG - March, 2014

Change the Weather History Date:

Tuesday, March 11, 2014

  Actual Average Record
Temperature  
Mean Temperature 28 °F -  
Max Temperature 40 °F - - ()
Min Temperature 15 °F - - ()
Degree Days  
Heating Degree Days 38    
Moisture  
Dew Point 13 °F    
Average Humidity 55    
Maximum Humidity 82    
Minimum Humidity 30    
Precipitation  
Precipitation 0.00 in - - ()
Sea Level Pressure  
Sea Level Pressure 30.37 in    
Wind  
Wind Speed 5 mph ()    
Max Wind Speed 13 mph    
Max Gust Speed 22 mph    
T = Trace of Precipitation, MM = Missing Value Source: Averaged Metar Reports

Daily Weather History Graph

Daily Weather History Graph

Search for Another Location

Airport or City:

Trip Planner

Search our weather history database for the weather conditions in past years. The results will help you decide how hot, cold, wet, or windy it might be!

Date:

Astronomy

Mar. 11, 2014 Rise Set
Actual Time 8:04 AM MDT 7:40 PM MDT
Civil Twilight 7:31 AM MDT 8:13 PM MDT
Nautical Twilight 6:53 AM MDT 8:52 PM MDT
Astronomical Twilight 6:14 AM MDT 9:31 PM MDT
Moon 2:57 PM MDT (3/11) 5:25 AM MDT (3/11)
Length of Visible Light 12h 41m
Length of Day
11h 35m
Waxing Gibbous, 78% of the Moon is Illuminated
Mar 11
Waxing Gibbous
Mar 16
Full
Mar 23
Last Quarter
Mar 30
New
Apr 7
First Quarter

Hourly Weather History & Observations

Time (MDT) Temp. Windchill Dew Point Humidity Pressure Visibility Wind Dir Wind Speed Gust Speed Precip Events Conditions
12:00 AM 25.3 °F - 12.9 °F 59% 30.22 in - North 2.3 mph - N/A   Unknown
1:00 AM 25.2 °F 20.9 °F 13.6 °F 62% 30.24 in - WNW 3.5 mph - N/A   Unknown
2:00 AM 22.6 °F - 13.8 °F 69% 30.25 in - NNW 1.2 mph - N/A   Unknown
3:00 AM 22.6 °F 18.0 °F 14.4 °F 71% 30.29 in - WSW 3.5 mph - N/A   Unknown
4:00 AM 20.8 °F 14.4 °F 14.2 °F 75% 30.30 in - WSW 4.6 mph - N/A   Unknown
5:00 AM 19.9 °F 12.1 °F 13.5 °F 76% 30.32 in - WSW 5.8 mph - N/A   Unknown
6:00 AM 19.2 °F 11.3 °F 12.9 °F 76% 30.38 in - WSW 5.8 mph - N/A   Unknown
7:00 AM 17.4 °F 9.1 °F 12.2 °F 80% 30.38 in - SW 5.8 mph - N/A   Unknown
8:00 AM 15.6 °F 5.9 °F 11.1 °F 82% 30.43 in - WSW 6.9 mph - N/A   Unknown
9:00 AM 17.8 °F 6.6 °F 11.1 °F 75% 30.46 in - SW 9.2 mph 17.3 mph N/A   Unknown
10:00 AM 21.2 °F 10.9 °F 11.1 °F 65% 30.46 in - SW 9.2 mph - N/A   Unknown
11:00 AM 26.6 °F 17.5 °F 11.8 °F 54% 30.43 in - SW 9.2 mph - N/A   Unknown
12:00 PM 33.1 °F 24.9 °F 11.5 °F 41% 30.41 in - SW 10.4 mph - N/A   Unknown
1:00 PM 37.2 °F 29.6 °F 9.9 °F 32% 30.40 in - SW 11.5 mph 18.4 mph N/A   Unknown
2:00 PM 36.5 °F 29.2 °F 9.1 °F 32% 30.39 in - WSW 10.4 mph 19.6 mph N/A   Unknown
3:00 PM 39.2 °F 31.6 °F 10.2 °F 30% 30.36 in - SW 12.7 mph 21.9 mph N/A   Unknown
4:00 PM 40.3 °F 33.0 °F 11.5 °F 31% 30.35 in - SW 12.7 mph 21.9 mph N/A   Unknown
5:00 PM 38.3 °F 31.9 °F 11.3 °F 33% 30.37 in - WSW 9.2 mph 18.4 mph N/A   Unknown
6:00 PM 39.9 °F 33.9 °F 12.6 °F 33% 30.38 in - WSW 9.2 mph 20.7 mph N/A   Unknown
7:00 PM 38.7 °F 34.3 °F 13.6 °F 36% 30.40 in - West 5.8 mph - N/A   Unknown
8:00 PM 35.8 °F 31.9 °F 15.1 °F 43% 30.41 in - West 4.6 mph - N/A   Unknown
9:00 PM 33.4 °F 27.3 °F 18.5 °F 54% 30.43 in - WSW 6.9 mph - N/A   Unknown
10:00 PM 32.9 °F 26.7 °F 17.2 °F 53% 30.43 in - WSW 6.9 mph - N/A   Unknown
11:00 PM 33.4 °F 28.1 °F 17.6 °F 52% 30.40 in - WSW 5.8 mph - N/A   Unknown